Tracking 29892 objects as of 21-Nov-2024
HD Live streaming from Space Station
objects crossing your sky now

COSMOS 1275 DEB

Track COSMOS 1275 DEB now!
10-day predictions


NORAD ID: 12658
Int'l Code: 1981-053N
Perigee: 789.9 km
Apogee: 848.8 km
Inclination: 83.0 °
Period: 101.1 minutes
Semi major axis: 7190 km
RCS: 0.0884 m2 (small)
Launch date: June 4, 1981
Source: Commonwealth of Independent States (former USSR) (CIS)
Launch site: PLESETSK MISSILE AND SPACE COMPLEX (PKMTR)

Note: This is SATELLITE DEBRIS
Your satellite tracking list
Your tracking list is empty




NASA's NSSDC Master Catalog

Two Line Element Set (TLE):
1 12658U 81053N   24325.78660609  .00009593  00000-0  41412-2 0  9997
2 12658  82.9713 244.0507 0040962  26.1533 350.5048 14.23907920208436
Source of the keplerian elements: AFSPC